Terminal Aerodrome Forecast
Issued by NWS

Home | Current Version | Previous Version | Text Only | Print | Product List | Glossary On
Versions: 1 2 3 4 5 6 7 8 9 10 11 12 13 14 15 16 17 18 19 20 21 22 23 24 25 26 27 28 29 30 31 32 33 34 35 36 37 38 39 40 41 42 43 44 45 46 47 48 49 50
000
FTUS44 KHGX 272148 AAD
TAFIAH
TAF AMD
KIAH 272148Z 2722/2824 33013G20KT P6SM BKN006 OVC013
     FM280100 35014G20KT 6SM -RA BR SCT005 OVC010
     FM280900 35012KT 3SM SHRA BR SCT005 OVC009
     FM281900 34009KT P6SM OVC015
     FM282300 35005KT P6SM BKN100=

USA.gov is the U.S. government's official web portal to all federal, state and local government web resources and services.